Temp
-5 -5 -6 -6 -6 -6 -6 -6 -6 -6 -6 -7 -7 -7 -7 -6 -7 -7 -7 -7 -7 -7 -7 -7 -7 -7 -7 -7 -8 -8 -8 -8 -8 -9 -10 -10 -10 -8 -8 -8 -10 -10 -8
-6 -6 -6 -6 -7 -6 -7 -7 -7 -6 -7 -7 -7 -7 -7 -7 -7 -7 -7 -7 -6 -7 -6 -7 -7 -7 -7 -7 -7 -8 -8 -8 -8 -8 -9 -10 -10 -9 -9 -9 -9 -10 -9
-6 -6 -7 -6 -6 -7 -7 -7 -7 -7 -7 -7 -8 -8 -8 -7 -6 -6 -7 -7 -7 -7 -7 -7 -7 -7 -7 -7 -8 -8 -8 -8 -8 -8 -8 -9 -9 -10 -10 -10 -10 -10 -10
-6 -5 -4 -6 -7 -8 -8 -8 -7 -8 -8 -8 -8 -9 -8 -8 -8 -8 -8 -7 -7 -7 -7 -7 -7 -7 -7 -7 -8 -8 -8 -8 -8 -8 -8 -9 -9 -10 -10 -9 -9 -10 -10
-7 -4 -5 -5 -5 -8 -9 -8 -8 -8 -8 -8 -9 -8 -8 -8 -8 -8 -8 -7 -7 -7 -7 -7 -7 -7 -7 -8 -8 -8 -8 -8 -8 -8 -8 -9 -9 -10 -10 -10 -10 -10 -10
-5 -4 -5 -6 -5 -6 -8 -9 -7 -7 -9 -9 -9 -8 -8 -7 -8 -8 -8 -7 -7 -7 -7 -7 -7 -7 -8 -8 -8 -8 -8 -8 -9 -9 -9 -9 -9 -10 -10 -10 -10 -10 -10
-5 -5 -6 -6 -6 -7 -7 -7 -8 -8 -8 -8 -8 -9 -9 -8 -8 -8 -7 -7 -7 -8 -8 -8 -8 -8 -8 -8 -8 -9 -9 -9 -9 -9 -9 -9 -9 -10 -10 -10 -10 -10 -10
-6 -6 -6 -7 -7 -7 -6 -7 -10 -9 -8 -9 -9 -9 -9 -8 -8 -8 -8 -8 -9 -8 -8 -8 -8 -8 -8 -8 -8 -9 -9 -9 -9 -9 -9 -10 -10 -10 -10 -10 -10 -10 -10
-7 -7 -7 -7 -7 -7 -9 -8 -7 -8 -9 -9 -9 -8 -8 -9 -9 -9 -9 -9 -9 -9 -9 -8 -8 -8 -9 -9 -8 -9 -9 -9 -9 -10 -10 -10 -10 -10 -10 -10 -10 -11 -10
-7 -7 -7 -8 -9 -9 -8 -8 -9 -9 -9 -9 -9 -9 -9 -9 -9 -9 -9 -9 -9 -9 -9 -9 -9 -9 -9 -8 -8 -9 -9 -9 -10 -10 -10 -10 -10 -10 -10 -10 -11 -11 -11
-7 -7 -8 -8 -8 -8 -8 -8 -9 -9 -9 -9 -9 -9 -9 -9 -9 -10 -10 -10 -10 -10 -10 -10 -9 -9 -9 -9 -8 -9 -9 -9 -10 -10 -10 -10 -10 -10 -10 -10 -11 -11 -11
-7 -8 -8 -8 -8 -7 -8 -9 -8 -9 -9 -9 -9 -9 -9 -10 -10 -10 -10 -11 -11 -10 -10 -10 -10 -9 -9 -9 -9 -9 -9 -9 -10 -10 -10 -10 -10 -10 -10 -10 -11 -11 -11
-9 -9 -8 -8 -8 -9 -9 -8 -9 -9 -9 -9 -10 -10 -10 -11 -11 -11 -11 -11 -11 -11 -10 -10 -10 -10 -10 -10 -9 -9 -9 -10 -10 -10 -10 -11 -11 -11 -11 -11 -11 -11 -10
-9 -8 -8 -8 -8 -9 -9 -9 -9 -9 -9 -10 -10 -10 -11 -11 -11 -12 -12 -12 -12 -12 -12 -11 -11 -10 -10 -10 -10 -10 -10 -11 -11 -11 -11 -11 -11 -11 -11 -11 -11 -11 -11
-9 -8 -9 -9 -9 -9 -9 -10 -10 -10 -10 -10 -11 -11 -11 -11 -12 -12 -12 -13 -13 -13 -12 -12 -12 -11 -11 -11 -10 -11 -11 -11 -11 -11 -11 -11 -11 -11 -12 -12 -11 -11 -11
-9 -9 -9 -9 -10 -10 -10 -10 -10 -10 -11 -11 -11 -11 -12 -12 -12 -12 -13 -13 -13 -13 -13 -13 -12 -12 -12 -12 -12 -12 -12 -12 -12 -12 -12 -11 -11 -11 -11 -11 -11 -11 -11
-9 -10 -10 -10 -10 -10 -10 -10 -11 -11 -11 -11 -12 -12 -12 -12 -12 -13 -13 -13 -14 -13 -13 -13 -13 -13 -13 -13 -14 -14 -13 -13 -13 -13 -12 -12 -12 -12 -11 -11 -12 -11 -10
-10 -10 -10 -10 -10 -10 -11 -11 -11 -11 -12 -12 -12 -12 -12 -12 -13 -13 -13 -14 -14 -13 -13 -14 -14 -14 -14 -14 -14 -14 -14 -14 -14 -14 -13 -13 -12 -11 -12 -12 -12 -11 -11
-10 -10 -10 -11 -11 -11 -11 -11 -11 -12 -12 -13 -13 -13 -12 -13 -13 -13 -14 -14 -14 -14 -14 -15 -15 -14 -15 -15 -15 -15 -14 -14 -14 -14 -14 -13 -13 -13 -12 -12 -12 -12 -12
-11 -11 -11 -11 -11 -11 -11 -12 -12 -12 -13 -13 -13 -13 -13 -13 -14 -14 -14 -14 -14 -14 -15 -15 -16 -15 -15 -15 -15 -16 -15 -15 -14 -14 -14 -14 -14 -13 -13 -13 -13 -13 -13
-11 -11 -11 -11 -11 -11 -12 -12 -12 -12 -13 -13 -13 -13 -13 -14 -14 -14 -14 -14 -14 -15 -15 -15 -16 -16 -16 -17 -17 -17 -16 -17 -16 -16 -16 -15 -15 -14 -13 -13 -13 -13 -13
-11 -11 -12 -12 -12 -12 -12 -12 -13 -13 -13 -14 -14 -13 -13 -14 -14 -15 -15 -15 -15 -15 -15 -16 -16 -16 -16 -17 -17 -18 -18 -18 -17 -17 -17 -17 -17 -17 -16 -16 -16 -15 -15
-12 -12 -11 -12 -12 -13 -13 -13 -14 -14 -14 -14 -14 -14 -14 -15 -15 -15 -15 -15 -15 -16 -16 -16 -16 -16 -16 -16 -17 -17 -17 -17 -17 -17 -17 -17 -17 -17 -16 -16 -16 -16 -16
-12 -12 -12 -12 -12 -13 -14 -14 -14 -14 -14 -14 -15 -15 -15 -15 -15 -15 -15 -15 -16 -16 -16 -16 -16 -16 -16 -17 -17 -17 -17 -17 -17 -17 -17 -17 -17 -16 -16 -16 -16 -16 -16
-12 -12 -13 -13 -13 -14 -14 -15 -15 -14 -14 -14 -15 -15 -15 -15 -15 -15 -16 -16 -16 -16 -16 -17 -17 -17 -16 -16 -17 -17 -17 -17 -17 -16 -16 -16 -16 -16 -16 -16 -16 -16 -16
-12 -13 -14 -14 -14 -15 -15 -15 -15 -15 -15 -15 -15 -15 -15 -15 -16 -16 -16 -16 -16 -16 -16 -17 -17 -17 -17 -17 -17 -16 -17 -16 -16 -16 -16 -16 -16 -16 -16 -16 -16 -16 -16
Height
5925 5925 5924 5923 5922 5921 5920 5919 5918 5916 5916 5912 5909 5907 5906 5902 5898 5894 5890 5885 5880 5876 5871 5865 5862 5857 5854 5851 5848 5845 5842 5838 5834 5839 5839 5838 5835 5828 5827 5828 5826 5825 5825
5917 5919 5918 5916 5916 5915 5912 5912 5911 5907 5907 5906 5902 5899 5896 5893 5890 5886 5882 5876 5871 5865 5860 5855 5851 5846 5842 5839 5835 5833 5830 5827 5822 5821 5823 5825 5822 5817 5815 5816 5816 5813 5815
5905 5896 5901 5906 5906 5908 5905 5903 5901 5899 5896 5893 5889 5889 5886 5883 5880 5877 5872 5865 5859 5853 5849 5845 5840 5835 5831 5827 5823 5820 5817 5814 5811 5807 5807 5808 5807 5804 5803 5803 5804 5803 5800
5900 5897 5897 5897 5898 5897 5895 5892 5890 5887 5885 5882 5881 5881 5877 5871 5868 5865 5858 5853 5847 5841 5836 5832 5827 5822 5817 5813 5809 5806 5803 5800 5798 5794 5793 5794 5793 5794 5788 5788 5790 5790 5788
5883 5884 5890 5890 5888 5887 5885 5881 5877 5875 5872 5872 5873 5870 5865 5861 5858 5852 5846 5841 5834 5829 5823 5818 5813 5807 5802 5798 5794 5792 5788 5785 5782 5780 5779 5778 5779 5778 5776 5773 5773 5774 5776
5881 5883 5884 5884 5879 5876 5870 5866 5864 5863 5864 5865 5863 5858 5853 5850 5843 5838 5832 5827 5820 5814 5810 5804 5798 5792 5787 5783 5780 5777 5774 5771 5767 5765 5765 5763 5765 5764 5761 5758 5758 5760 5763
5876 5875 5873 5872 5868 5866 5861 5857 5852 5853 5855 5852 5848 5845 5840 5836 5831 5825 5818 5813 5807 5801 5795 5789 5784 5777 5773 5770 5766 5763 5760 5757 5754 5752 5751 5751 5751 5751 5749 5748 5748 5749 5751
5871 5867 5864 5863 5860 5854 5851 5844 5843 5847 5846 5842 5836 5832 5827 5822 5817 5811 5805 5798 5793 5787 5780 5773 5768 5763 5759 5755 5752 5749 5746 5744 5742 5739 5739 5739 5739 5739 5739 5739 5738 5738 5739
5863 5858 5854 5849 5849 5844 5842 5838 5837 5836 5833 5829 5824 5818 5813 5808 5804 5798 5791 5786 5779 5772 5765 5760 5755 5751 5746 5742 5740 5738 5734 5732 5728 5727 5727 5728 5728 5728 5728 5728 5729 5729 5726
5851 5849 5845 5837 5836 5835 5832 5827 5826 5824 5820 5816 5811 5805 5799 5795 5790 5785 5779 5773 5766 5759 5753 5747 5742 5738 5734 5730 5727 5725 5722 5719 5717 5715 5716 5717 5717 5718 5719 5719 5720 5716 5720
5845 5841 5836 5835 5830 5826 5822 5819 5816 5814 5808 5803 5798 5792 5788 5784 5778 5773 5768 5760 5754 5747 5741 5735 5729 5726 5721 5717 5713 5711 5709 5707 5706 5705 5705 5706 5707 5709 5709 5709 5709 5710 5712
5837 5833 5831 5828 5825 5820 5815 5812 5808 5803 5797 5792 5787 5784 5779 5774 5768 5762 5755 5749 5742 5736 5730 5724 5718 5713 5708 5704 5700 5697 5695 5695 5695 5695 5695 5695 5696 5697 5699 5700 5700 5700 5703
5829 5826 5824 5820 5815 5811 5808 5803 5797 5793 5788 5784 5779 5773 5768 5763 5757 5751 5744 5738 5732 5726 5719 5712 5707 5701 5696 5691 5687 5684 5683 5683 5683 5684 5685 5685 5687 5686 5689 5691 5691 5692 5693
5819 5816 5813 5809 5806 5801 5796 5792 5789 5784 5779 5775 5770 5765 5759 5753 5747 5742 5736 5729 5723 5716 5710 5702 5695 5689 5684 5680 5676 5673 5673 5672 5673 5674 5675 5675 5677 5678 5680 5682 5684 5685 5685
5810 5806 5803 5799 5795 5791 5787 5783 5779 5775 5771 5766 5761 5756 5750 5745 5740 5735 5728 5722 5715 5709 5703 5695 5687 5681 5675 5671 5667 5665 5664 5664 5665 5665 5667 5668 5670 5670 5672 5674 5675 5676 5678
5798 5795 5792 5789 5785 5781 5777 5774 5770 5766 5761 5757 5753 5748 5743 5737 5732 5726 5721 5716 5710 5703 5698 5690 5681 5675 5671 5667 5662 5660 5658 5658 5658 5658 5658 5660 5661 5663 5658 5664 5668 5667 5672
5788 5785 5781 5778 5774 5771 5768 5765 5761 5757 5753 5750 5745 5741 5735 5730 5726 5721 5716 5711 5706 5701 5693 5686 5678 5673 5668 5664 5660 5657 5656 5654 5653 5653 5651 5653 5655 5655 5652 5655 5659 5663 5660
5776 5773 5770 5767 5764 5762 5759 5756 5752 5749 5745 5742 5737 5733 5729 5725 5720 5716 5711 5707 5704 5698 5691 5685 5679 5672 5667 5663 5659 5656 5653 5652 5650 5650 5648 5649 5649 5649 5649 5649 5653 5653 5654
5766 5763 5761 5758 5756 5753 5751 5748 5744 5740 5736 5733 5731 5727 5724 5720 5715 5711 5706 5703 5699 5694 5690 5685 5679 5673 5667 5662 5658 5654 5651 5649 5647 5646 5647 5645 5645 5645 5645 5645 5647 5647 5650
5757 5754 5752 5750 5748 5745 5743 5739 5735 5732 5729 5727 5724 5721 5718 5715 5710 5706 5703 5699 5696 5691 5687 5684 5680 5673 5667 5661 5657 5655 5650 5647 5645 5642 5641 5642 5642 5642 5642 5642 5643 5643 5644
5748 5746 5744 5742 5740 5737 5733 5729 5726 5724 5721 5719 5717 5714 5712 5709 5706 5702 5699 5696 5692 5689 5685 5682 5678 5674 5669 5663 5658 5652 5650 5649 5645 5642 5639 5638 5638 5639 5640 5641 5641 5643 5640
5739 5738 5736 5733 5730 5726 5723 5721 5718 5715 5713 5712 5710 5708 5706 5703 5701 5699 5695 5693 5690 5686 5682 5680 5677 5673 5670 5666 5662 5658 5654 5651 5648 5646 5643 5641 5640 5638 5638 5639 5639 5638 5638
5731 5729 5726 5724 5720 5717 5714 5711 5709 5707 5706 5705 5703 5702 5700 5698 5697 5695 5692 5689 5687 5684 5680 5678 5675 5673 5670 5668 5665 5662 5659 5656 5653 5651 5649 5648 5646 5644 5642 5642 5641 5640 5639
5722 5719 5716 5711 5709 5707 5704 5702 5700 5699 5699 5698 5698 5696 5694 5694 5692 5690 5688 5686 5684 5681 5679 5676 5674 5672 5670 5668 5666 5664 5662 5659 5656 5654 5653 5651 5649 5647 5646 5646 5644 5642 5640
5711 5708 5704 5701 5698 5695 5694 5693 5692 5692 5691 5692 5691 5690 5690 5689 5687 5686 5685 5683 5681 5679 5678 5675 5674 5672 5670 5669 5667 5665 5662 5660 5658 5656 5654 5652 5650 5648 5647 5645 5643 5640 5639
5702 5700 5696 5691 5689 5686 5684 5685 5684 5684 5683 5683 5684 5684 5685 5684 5683 5682 5681 5680 5679 5678 5676 5674 5673 5672 5670 5669 5667 5665 5663 5661 5659 5657 5655 5653 5650 5647 5644 5641 5638 5636 5633
Wind_Speed
26 25 22 22 25 26 26 27 26 28 30 29 31 33 35 42 43 46 48 52 54 57 53 50 46 44 42 44 45 46 48 50 48 44 42 44 44 47 48 44 44 43 38
32 28 26 25 28 30 30 30 31 30 34 38 36 36 39 41 45 47 48 53 57 56 52 50 45 45 45 46 47 48 48 49 51 49 47 46 49 50 50 48 46 47 40
45 43 49 33 31 37 41 40 37 42 46 50 44 39 35 39 45 48 51 55 54 54 52 49 49 49 49 49 50 51 50 51 51 52 50 49 50 52 52 50 45 46 46
47 36 49 36 38 46 45 48 50 52 49 32 33 35 38 39 46 51 54 57 57 54 53 53 53 51 51 51 51 52 51 52 52 54 52 49 49 48 53 51 49 46 47
51 37 49 50 56 44 52 57 58 59 59 47 34 37 41 48 51 55 57 58 56 54 54 53 54 54 54 53 52 50 50 51 51 51 49 50 46 44 47 49 50 49 42
47 50 53 55 55 58 59 62 64 67 43 41 35 36 45 48 54 51 52 53 51 51 53 54 56 54 52 52 49 49 48 48 48 48 46 47 43 43 45 48 47 44 40
53 61 50 60 65 65 68 55 40 50 42 38 38 42 46 47 48 51 51 51 52 55 56 55 54 52 50 46 46 45 43 44 44 45 43 42 41 41 40 38 38 39 39
52 60 58 65 69 70 53 44 28 30 35 37 39 43 46 47 49 50 52 54 56 55 53 50 47 45 44 44 43 40 40 40 42 44 42 38 39 39 39 36 38 39 38
54 59 62 72 68 49 41 34 36 31 34 39 41 42 44 47 49 52 54 53 51 49 47 46 44 43 43 41 40 38 38 38 41 42 40 37 35 34 35 37 37 37 35
50 43 47 40 36 40 44 39 35 39 42 42 43 46 47 48 49 47 46 47 47 47 46 46 46 44 44 44 42 40 37 37 38 38 35 35 34 34 35 36 35 34 29
37 40 38 42 46 46 43 39 42 43 43 44 43 42 44 46 46 46 46 46 44 45 45 44 43 42 41 42 42 36 35 35 35 34 33 31 35 33 32 32 31 32 31
37 35 40 45 47 47 41 43 44 44 44 41 42 47 47 47 47 46 44 44 44 44 44 42 41 39 38 36 34 34 33 34 35 32 31 29 31 31 31 32 34 32 31
35 40 43 44 45 38 41 44 44 41 39 40 44 46 44 40 40 41 42 43 43 44 45 45 41 39 38 33 32 34 35 34 33 32 29 28 26 29 28 30 31 32 31
39 41 44 42 39 41 42 41 38 37 39 42 41 39 39 40 40 41 42 43 45 44 41 41 42 42 35 30 30 32 33 31 30 28 27 26 26 30 29 26 28 33 34
41 42 37 40 42 39 38 35 36 39 39 37 37 38 37 37 39 39 41 40 39 36 37 39 37 35 32 31 29 28 25 25 25 25 26 27 28 29 30 30 28 23 28
38 37 40 41 38 36 35 36 39 38 36 34 35 35 32 34 36 37 36 36 35 36 35 35 31 25 24 25 25 22 19 16 16 23 26 26 29 27 35 26 27 37 34
37 39 40 37 35 34 36 35 35 33 34 34 31 31 33 32 32 31 33 33 32 31 32 30 24 20 20 17 15 17 16 15 14 15 19 21 25 32 27 31 21 34 50
40 39 36 33 33 35 33 33 34 34 33 30 29 30 30 26 29 28 28 28 26 27 29 30 29 23 20 17 18 22 23 14 14 17 12 11 17 24 27 29 28 20 28
37 36 33 34 34 32 33 33 34 34 31 28 29 28 25 26 29 29 26 24 24 24 26 26 26 27 21 20 20 20 20 18 22 18 14 15 12 11 14 23 23 20 18
34 34 35 34 32 35 35 35 34 32 30 27 28 25 25 26 27 23 21 21 21 22 24 24 22 25 28 23 20 17 20 20 18 17 16 18 18 20 16 14 12 14 15
34 35 34 34 35 34 35 33 33 32 28 25 25 25 23 24 26 21 18 18 19 21 22 23 21 19 23 23 24 23 18 15 18 16 14 13 13 13 14 16 13 17 13
33 33 34 37 36 35 34 34 33 31 27 24 23 22 22 24 21 17 17 17 19 21 20 19 17 19 17 20 20 21 20 22 23 22 19 21 21 17 15 14 10 8 8
34 36 37 35 35 35 36 33 31 28 24 23 20 20 22 21 17 17 16 17 19 20 20 16 12 14 14 12 13 15 17 17 17 18 17 17 16 17 17 16 16 16 15
34 35 37 39 39 37 35 33 29 27 24 23 23 23 20 17 14 15 17 16 18 17 16 12 11 11 10 10 11 12 12 12 13 14 14 15 16 16 15 14 14 14 13
36 37 39 39 39 38 35 31 29 27 27 27 25 21 17 14 13 14 13 15 15 14 12 9 9 7 7 9 10 10 9 10 12 15 16 16 18 19 19 18 18 19 19
36 32 33 38 39 36 34 29 26 23 23 21 21 20 15 13 12 11 11 12 11 10 7 4 4 6 7 7 8 9 11 13 14 16 19 22 24 25 27 27 27 25 25
Wind_Direction
264 265 269 275 280 281 284 286 287 280 269 268 272 281 290 300 302 304 310 311 315 310 304 299 297 291 288 286 284 283 283 285 285 281 276 277 278 279 283 281 285 286 279
254 252 253 257 267 274 272 272 275 273 272 268 270 279 289 291 295 303 308 309 307 307 301 295 292 291 291 289 287 286 285 285 287 286 281 278 278 279 278 278 279 281 279
258 248 261 262 262 269 274 269 266 280 272 265 260 268 274 284 292 300 305 306 305 301 300 294 292 291 290 288 287 286 284 283 282 282 281 280 277 277 279 277 276 278 278
279 273 273 279 259 267 263 267 266 271 269 269 275 283 286 295 301 304 304 304 302 299 296 293 291 290 288 288 287 285 284 283 281 281 281 280 276 275 275 275 273 272 270
253 243 276 286 270 259 265 263 262 267 266 266 279 298 301 298 299 298 299 299 294 293 293 291 291 290 289 287 286 285 284 283 281 279 280 280 279 275 275 273 271 269 269
279 276 276 279 282 274 257 258 267 280 287 281 302 297 292 298 297 296 297 295 295 293 291 289 288 288 286 285 285 286 286 285 282 279 278 277 278 279 275 271 268 266 264
263 271 275 281 283 284 282 300 299 273 288 309 300 294 293 292 291 296 297 296 294 291 290 290 290 288 287 288 288 288 286 283 280 278 275 275 274 273 268 269 269 269 267
268 275 275 276 280 281 274 296 328 317 304 299 299 297 295 294 297 297 296 296 295 293 293 293 293 291 292 293 294 291 286 283 279 276 275 272 273 268 267 266 267 268 260
268 269 275 278 280 281 315 321 314 310 304 302 301 302 301 300 300 300 300 298 297 298 298 298 296 295 294 292 292 291 287 281 276 275 273 271 271 269 267 269 273 268 256
278 285 288 318 314 317 317 323 318 313 310 308 305 303 303 304 303 301 301 302 302 302 301 301 299 297 294 291 291 290 285 280 276 276 273 264 266 265 268 271 268 260 261
288 292 306 307 315 318 319 318 317 311 308 307 307 311 309 304 302 301 302 303 303 303 302 300 298 295 292 290 289 287 280 276 275 273 271 266 261 264 264 266 262 262 260
288 296 297 303 309 310 311 311 309 308 309 309 308 308 308 307 306 307 306 306 307 306 303 301 299 297 292 288 285 283 280 274 270 270 266 266 263 257 258 261 256 263 259
289 294 300 304 306 305 306 308 307 306 306 304 307 309 309 311 312 311 311 310 308 307 307 306 307 305 301 300 286 279 275 270 267 265 265 262 259 257 255 256 257 260 261
293 301 304 301 299 303 306 304 303 305 307 308 311 313 313 314 314 312 310 310 311 310 307 308 309 310 308 298 290 286 279 273 267 261 258 259 253 251 254 254 254 259 258
296 301 297 299 301 302 302 302 303 305 306 308 309 312 314 314 314 313 314 312 312 312 313 313 308 308 303 296 293 291 286 279 271 260 253 251 256 251 253 252 261 276 289
295 296 299 300 300 301 302 305 306 304 306 308 311 312 313 314 316 318 320 320 319 320 321 323 319 314 308 307 307 302 293 284 282 266 254 250 250 252 245 249 268 247 281
296 298 299 299 301 303 305 305 304 305 306 309 310 311 312 315 318 320 323 321 324 324 332 343 338 337 329 326 313 317 316 297 274 283 269 256 246 256 263 237 281 270 269
297 296 298 301 302 304 303 304 305 306 307 309 308 310 313 316 320 322 322 322 323 327 340 346 353 350 343 335 322 309 305 296 291 280 286 276 254 257 264 265 260 271 245
294 297 299 300 301 299 302 303 304 307 309 305 304 305 305 312 319 319 321 323 323 334 341 348 354 355 349 336 330 329 323 302 296 291 277 277 291 276 254 245 247 248 265
293 296 297 296 296 298 298 301 304 308 305 298 299 301 307 311 313 312 318 318 328 335 338 343 353 360 357 353 343 333 325 330 329 323 302 284 287 285 279 273 286 289 275
291 292 291 292 296 297 299 301 303 305 301 294 293 301 308 312 310 311 319 320 329 330 332 340 346 359 5 5 3 355 358 7 4 355 338 319 303 292 285 290 279 268 277
287 287 290 293 296 298 298 299 300 300 294 290 288 295 304 308 305 310 314 320 330 329 331 335 343 353 8 20 20 24 33 34 37 42 39 46 44 39 32 29 13 349 300
286 290 293 293 296 296 297 297 296 294 286 288 286 292 300 301 301 305 313 321 330 331 331 332 346 351 3 7 20 19 24 26 30 32 36 37 38 40 39 27 23 22 15
292 293 294 295 296 295 294 293 288 284 278 279 286 288 292 290 299 308 315 326 328 330 337 337 347 359 10 19 9 8 9 24 31 30 26 23 17 14 10 2 358 352 345
295 297 297 296 294 291 287 283 278 273 272 273 274 278 280 283 296 306 319 327 328 333 343 347 355 4 8 359 356 356 6 13 6 0 359 357 356 351 346 340 333 328 323
296 298 297 298 296 290 283 275 271 272 272 258 263 273 275 282 294 302 316 321 329 336 340 357 359 347 349 354 358 0 357 353 350 349 348 343 340 337 331 329 325 320 317